Location: ?
(35.4064°N, 139.3593°E)
Time: 05:21:42
(UTC+00:00)

ISS - Visible Passes

Search period start: 21 June 2024 00:00
Search period end: 01 July 2024 00:00
Orbit: 411 x 425 km, 51.6° (Epoch: 20 June)

Date Brightness Start Highest point End Pass type
(mag) Time Alt. Az. Time Alt. Az. Time Alt. Az.
21 Jun -1.3 17:16:56 14° ESE 17:16:56 14° ESE 17:18:31 10° E visible
21 Jun -3.1 18:49:58 10° WSW 18:53:11 46° NW 18:56:25 10° NE visible
22 Jun -3.9 18:03:45 32° SW 18:05:09 87° NW 18:08:30 10° NE visible
23 Jun -3.0 17:17:32 44° ESE 17:17:32 44° ESE 17:20:21 10° ENE visible
23 Jun -1.6 18:51:40 10° WNW 18:54:05 18° NNW 18:56:31 10° NNE visible
24 Jun -1.0 16:31:15 14° E 16:31:15 14° E 16:31:56 10° ENE visible
24 Jun -2.2 18:04:09 18° W 18:05:51 28° NW 18:08:47 10° NNE visible
25 Jun -3.1 17:17:47 47° NNW 17:17:47 47° NNW 17:20:54 10° NE visible
26 Jun -1.5 16:31:19 25° NE 16:31:19 25° NE 16:32:50 10° NE visible
26 Jun -1.1 18:04:59 10° NW 18:06:40 13° NNW 18:08:21 10° N visible
27 Jun -1.6 17:17:41 18° NW 17:18:17 19° NNW 17:20:45 10° NNE visible
28 Jun -1.4 16:31:04 23° N 16:31:04 23° N 16:32:54 10° NNE visible
29 Jun -0.5 15:44:23 13° NE 15:44:23 13° NE 15:44:52 10° NE visible
30 Jun -0.9 16:30:30 14° NNW 16:30:30 14° NNW 16:32:15 10° N visible
